Вернуться в каталог

COSMOS 1492

GLONASS

АктивенНавигацияMEO
NORAD 14260·PAYLOAD·🇷🇺 Russia

Запущен Aug 10, 1983 с Baikonur Cosmodrome

Loading…

Ближайшие Пролёты (ближайшие 24 часа)

TLE

СвежийSource: Space-Track

Эпоха: Sep 10, 2026, 03:24 UTC

1 14260U 83084C   26253.14173145  .00000023  00000-0  00000-0 0  9995
2 14260  64.8642  71.6494 0001562  30.8055 157.6103  2.12758812333380

Отслеживайте COSMOS 1492 в реальном времени с AllMySat

Download on the App Store